| time (UTC) | temp C | wind direction | speed KPH | gust KPH | rain 1hr cm | rain 24hr cm | rain mn cm | humidity % | barometer mb |
| 20260509074607 | 7 | 189 | 12.9 | 0.0 | 0.00 | 0.00 | 0.00 | 69 | 978.2 |
| 20260509073127 | 7 | 188 | 12.9 | 0.0 | 0.00 | 0.00 | 0.00 | 69 | 978.2 |
| 20260509071608 | 7 | 189 | 12.9 | 0.0 | 0.00 | 0.00 | 0.00 | 69 | 978.2 |
| 20260509070138 | 7 | 188 | 12.9 | 0.0 | 0.00 | 0.00 | 0.00 | 69 | 978.2 |
| 20260509064607 | 7 | 180 | 12.9 | 0.0 | 0.00 | 0.00 | 0.00 | 44 | 978.6 |
| 20260509063124 | 7 | 176 | 14.5 | 0.0 | 0.00 | 0.00 | 0.00 | 45 | 978.2 |
| 20260509061608 | 7 | 175 | 14.5 | 0.0 | 0.00 | 0.00 | 0.00 | 45 | 978.2 |
| 20260509060154 | 7 | 171 | 14.5 | 0.0 | 0.00 | 0.00 | 0.00 | 45 | 978.2 |
| 20260509054607 | 7 | 170 | 11.3 | 0.0 | 0.00 | 0.00 | 0.00 | 40 | 979.6 |
| 20260509053122 | 8 | 169 | 11.3 | 0.0 | 0.00 | 0.00 | 0.00 | 45 | 979.0 |
| 20260509051605 | 8 | 166 | 12.9 | 0.0 | 0.00 | 0.00 | 0.00 | 45 | 979.0 |
| 20260509050139 | 8 | 168 | 11.3 | 0.0 | 0.00 | 0.00 | 0.00 | 45 | 979.0 |
| 20260509044606 | 8 | 168 | 11.3 | 0.0 | 0.00 | 0.00 | 0.00 | 39 | 980.0 |
| 20260509043122 | 8 | 173 | 11.3 | 0.0 | 0.00 | 0.00 | 0.00 | 42 | 978.7 |
| 20260509041606 | 9 | 172 | 12.9 | 0.0 | 0.00 | 0.00 | 0.00 | 42 | 978.8 |
| 20260509040144 | 9 | 171 | 12.9 | 0.0 | 0.00 | 0.00 | 0.00 | 42 | 978.8 |
| 20260509034606 | 8 | 171 | 12.9 | 0.0 | 0.00 | 0.00 | 0.00 | 39 | 979.6 |
| 20260509033121 | 8 | 175 | 11.3 | 0.0 | 0.00 | 0.00 | 0.00 | 37 | 980.2 |
| 20260509031606 | 9 | 174 | 9.7 | 0.0 | 0.00 | 0.00 | 0.00 | 37 | 980.2 |
| 20260509030139 | 10 | 167 | 9.7 | 0.0 | 0.00 | 0.00 | 0.00 | 37 | 980.2 |
| 20260509024605 | 10 | 162 | 9.7 | 0.0 | 0.00 | 0.00 | 0.00 | 36 | 980.5 |
| 20260509023123 | 10 | 165 | 9.7 | 0.0 | 0.00 | 0.00 | 0.00 | 35 | 980.5 |
| 20260509021606 | 10 | 176 | 9.7 | 0.0 | 0.00 | 0.00 | 0.00 | 35 | 980.5 |
| 20260509020136 | 10 | 176 | 9.7 | 0.0 | 0.00 | 0.00 | 0.00 | 35 | 980.5 |
| 20260509014605 | 11 | 182 | 9.7 | 0.0 | 0.00 | 0.00 | 0.00 | 33 | 980.6 |
| 20260509013119 | 11 | 195 | 8.0 | 0.0 | 0.00 | 0.00 | 0.00 | 33 | 980.6 |
| 20260509011605 | 12 | 195 | 6.4 | 0.0 | 0.00 | 0.00 | 0.00 | 33 | 980.6 |
| 20260509010133 | 12 | 214 | 4.8 | 0.0 | 0.00 | 0.00 | 0.00 | 33 | 980.6 |
| 20260509004603 | 13 | 231 | 4.8 | 0.0 | 0.00 | 0.00 | 0.00 | 29 | 980.3 |
| 20260509003122 | 13 | 241 | 6.4 | 0.0 | 0.00 | 0.00 | 0.00 | 27 | 981.5 |
| 20260509001604 | 13 | 254 | 4.8 | 0.0 | 0.00 | 0.00 | 0.00 | 27 | 981.5 |
| 20260509000147 | 14 | 256 | 6.4 | 0.0 | 0.00 | 0.00 | 0.00 | 27 | 981.5 |
| 20260508234606 | 15 | 258 | 9.7 | 0.0 | 0.00 | 0.00 | 0.00 | 23 | 980.9 |
| 20260508233125 | 15 | 260 | 11.3 | 0.0 | 0.00 | 0.00 | 0.00 | 21 | 981.4 |
| 20260508231608 | 15 | 260 | 11.3 | 0.0 | 0.00 | 0.00 | 0.00 | 21 | 981.4 |
| 20260508230131 | 15 | 267 | 12.9 | 0.0 | 0.00 | 0.00 | 0.00 | 21 | 981.4 |
| 20260508224607 | 15 | 269 | 12.9 | 0.0 | 0.00 | 0.00 | 0.00 | 21 | 981.5 |
| 20260508223126 | 15 | 269 | 14.5 | 0.0 | 0.00 | 0.00 | 0.00 | 21 | 982.4 |
| 20260508221608 | 15 | 268 | 16.1 | 0.0 | 0.00 | 0.00 | 0.00 | 21 | 982.4 |
| 20260508220133 | 16 | 264 | 16.1 | 0.0 | 0.00 | 0.00 | 0.00 | 21 | 982.4 |
| 20260508214608 | 16 | 266 | 17.7 | 0.0 | 0.00 | 0.00 | 0.00 | 20 | 983.0 |
| 20260508213125 | 16 | 264 | 17.7 | 0.0 | 0.00 | 0.00 | 0.00 | 21 | 982.4 |
| 20260508211608 | 16 | 257 | 16.1 | 0.0 | 0.00 | 0.00 | 0.00 | 21 | 982.4 |
| 20260508210137 | 16 | 256 | 16.1 | 0.0 | 0.00 | 0.00 | 0.00 | 21 | 982.4 |
| 20260508204608 | 16 | 255 | 17.7 | 0.0 | 0.00 | 0.00 | 0.00 | 23 | 982.6 |
| 20260508203126 | 16 | 252 | 17.7 | 0.0 | 0.00 | 0.00 | 0.00 | 21 | 982.2 |
| 20260508201608 | 16 | 252 | 14.5 | 0.0 | 0.00 | 0.00 | 0.00 | 21 | 982.3 |
| 20260508200133 | 16 | 248 | 16.1 | 0.0 | 0.00 | 0.00 | 0.00 | 21 | 982.3 |
| 20260508194608 | 16 | 246 | 16.1 | 0.0 | 0.00 | 0.00 | 0.00 | 19 | 982.5 |
| 20260508193122 | 16 | 245 | 16.1 | 0.0 | 0.00 | 0.00 | 0.00 | 19 | 982.5 |
| 20260508191607 | 16 | 254 | 16.1 | 0.0 | 0.00 | 0.00 | 0.00 | 19 | 982.5 |
| 20260508190131 | 16 | 253 | 14.5 | 0.0 | 0.00 | 0.00 | 0.00 | 19 | 982.5 |
| 20260508184607 | 16 | 253 | 14.5 | 0.0 | 0.00 | 0.00 | 0.00 | 21 | 983.0 |
| 20260508183127 | 16 | 250 | 14.5 | 0.0 | 0.00 | 0.00 | 0.00 | 22 | 982.5 |
| 20260508181607 | 16 | 251 | 16.1 | 0.0 | 0.00 | 0.00 | 0.00 | 22 | 982.5 |
| 20260508180138 | 16 | 249 | 16.1 | 0.0 | 0.00 | 0.00 | 0.00 | 22 | 982.5 |
| 20260508174608 | 16 | 244 | 16.1 | 0.0 | 0.00 | 0.00 | 0.00 | 31 | 983.6 |
| 20260508173126 | 16 | 252 | 17.7 | 0.0 | 0.00 | 0.00 | 0.00 | 31 | 983.6 |
| 20260508171607 | 15 | 241 | 16.1 | 0.0 | 0.00 | 0.00 | 0.00 | 31 | 983.6 |
| 20260508170133 | 15 | 241 | 16.1 | 0.0 | 0.00 | 0.00 | 0.00 | 31 | 983.6 |
| 20260508164607 | 15 | 245 | 14.5 | 0.0 | 0.00 | 0.00 | 0.00 | 34 | 984.0 |
| 20260508163126 | 15 | 239 | 16.1 | 0.0 | 0.00 | 0.00 | 0.00 | 34 | 984.1 |
| 20260508161607 | 13 | 235 | 14.5 | 0.0 | 0.00 | 0.00 | 0.00 | 34 | 984.1 |
| 20260508160138 | 13 | 229 | 12.9 | 0.0 | 0.00 | 0.00 | 0.00 | 34 | 984.1 |
| 20260508154608 | 13 | 222 | 12.9 | 0.0 | 0.00 | 0.00 | 0.00 | 47 | 985.0 |
| 20260508153128 | 12 | 207 | 11.3 | 0.0 | 0.00 | 0.00 | 0.00 | 49 | 983.8 |
| 20260508151608 | 12 | 197 | 11.3 | 0.0 | 0.00 | 0.00 | 0.00 | 49 | 983.8 |
| 20260508150138 | 11 | 193 | 11.3 | 0.0 | 0.00 | 0.00 | 0.00 | 49 | 983.8 |
| 20260508144608 | 11 | 189 | 11.3 | 0.0 | 0.00 | 0.00 | 0.00 | 61 | 984.2 |
| 20260508143125 | 11 | 191 | 11.3 | 0.0 | 0.00 | 0.00 | 0.00 | 59 | 984.2 |
| 20260508141608 | 10 | 186 | 9.7 | 0.0 | 0.00 | 0.00 | 0.00 | 59 | 984.2 |
| 20260508140146 | 10 | 182 | 8.0 | 0.0 | 0.00 | 0.00 | 0.00 | 60 | 984.0 |
| 20260508134608 | 9 | 180 | 8.0 | 0.0 | 0.00 | 0.00 | 0.00 | 69 | 983.8 |
| 20260508133122 | 8 | 186 | 9.7 | 0.0 | 0.00 | 0.00 | 0.00 | 69 | 983.8 |
| 20260508131607 | 7 | 184 | 9.7 | 0.0 | 0.00 | 0.00 | 0.00 | 69 | 983.8 |
| 20260508130142 | 6 | 184 | 11.3 | 0.0 | 0.00 | 0.00 | 0.00 | 69 | 983.8 |
| 20260508124608 | 6 | 184 | 9.7 | 0.0 | 0.00 | 0.00 | 0.00 | 79 | 983.4 |
| 20260508123126 | 5 | 190 | 9.7 | 0.0 | 0.00 | 0.00 | 0.00 | 79 | 983.9 |
| 20260508121607 | 5 | 185 | 6.4 | 0.0 | 0.00 | 0.00 | 0.00 | 79 | 983.9 |
| 20260508120156 | 3 | 180 | 4.8 | 0.0 | 0.00 | 0.00 | 0.00 | 79 | 983.9 |
| 20260508114607 | 2 | 180 | 3.2 | 0.0 | 0.00 | 0.00 | 0.00 | 76 | 983.4 |
| 20260508113129 | 2 | 172 | 4.8 | 0.0 | 0.00 | 0.00 | 0.00 | 79 | 983.9 |
| 20260508111607 | 2 | 162 | 6.4 | 0.0 | 0.00 | 0.00 | 0.00 | 79 | 984.0 |
| 20260508110133 | 2 | 158 | 6.4 | 0.0 | 0.00 | 0.00 | 0.00 | 79 | 984.0 |
| 20260508104609 | 2 | 157 | 6.4 | 0.0 | 0.00 | 0.00 | 0.00 | 74 | 983.1 |
| 20260508103127 | 2 | 152 | 4.8 | 0.0 | 0.00 | 0.00 | 0.00 | 72 | 984.1 |
| 20260508101610 | 2 | 150 | 4.8 | 0.0 | 0.00 | 0.00 | 0.00 | 72 | 984.1 |
| 20260508100134 | 2 | 147 | 4.8 | 0.0 | 0.00 | 0.00 | 0.00 | 72 | 984.1 |
| 20260508094609 | 2 | 152 | 4.8 | 0.0 | 0.00 | 0.00 | 0.00 | 72 | 983.4 |
| 20260508093123 | 2 | 155 | 4.8 | 0.0 | 0.00 | 0.00 | 0.00 | 76 | 984.1 |
| 20260508091610 | 2 | 161 | 6.4 | 0.0 | 0.00 | 0.00 | 0.00 | 76 | 984.1 |
| 20260508090138 | 2 | 163 | 6.4 | 0.0 | 0.00 | 0.00 | 0.00 | 76 | 984.1 |
| 20260508084609 | 2 | 163 | 6.4 | 0.0 | 0.00 | 0.00 | 0.00 | 80 | 983.8 |
| 20260508083127 | 2 | 168 | 6.4 | 0.0 | 0.00 | 0.00 | 0.00 | 75 | 983.4 |
| 20260508081608 | 2 | 175 | 6.4 | 0.0 | 0.00 | 0.00 | 0.00 | 75 | 983.4 |
| 20260508080141 | 3 | 166 | 6.4 | 0.0 | 0.00 | 0.00 | 0.00 | 75 | 983.4 |